Regional Weather Roundup
Issued by NWS

Home | Current Version | Previous Version | Text Only | Print | Product List | Glossary Off
Versions: 1 2 3 4 5 6 7 8 9 10 11 12 13 14 15 16 17 18 19 20 21 22 23 24 25 26 27 28 29 30 31 32 33 34 35 36 37 38 39 40 41 42 43 44 45 46 47 48 49 50

000
ASUS43 KOAX 282210
RWRNE

WEATHER ROUNDUP FOR NEBRASKA
NATIONAL WEATHER SERVICE OMAHA NE
500 PM CDT FRI APR 28 2017

NOTES: SATELLITE DATA IS BEING USED TO AUGMENT CLOUD COVER ABOVE
       12000 FEET.
       "FAIR" INDICATES FEW OR NO CLOUDS BELOW 12,000 FEET WITH NO
       SIGNIFICANT WEATHER AND/OR OBSTRUCTIONS TO VISIBILITY.

  * THESE STATIONS DO NOT REPORT WEATHER SUCH AS RAIN...SNOW OR FOG.

NEZ001>004-019>022-054>056-282300-
NEBRASKA PANHANDLE

CITY           SKY/WX    TMP DP  RH WIND       PRES   REMARKS
SCOTTSBLUFF    LGT SNOW  34  32  92 NE14      29.95R VSB 1   WCI  25
ALLIANCE       CLOUDY    36  30  79 NE16      29.93R WCI  26
CHADRON        CLOUDY    43  29  57 NE14      29.98R
KIMBALL        LGT SNOW  32  32  99 E18G25    29.88R WCI  21
SIDNEY         LGT RAIN  33  31  92 E23       29.90R FOG     WCI  21
$$

NEZ057>060-069>072-079>082-282300-
SOUTHWEST NEBRASKA

CITY           SKY/WX    TMP DP  RH WIND       PRES   REMARKS
NORTH PLATTE   CLOUDY    38  33  82 NE16G24   29.92R WCI  29
IMPERIAL       CLOUDY    37  33  85 NE18      29.88R WCI  27
LEXINGTON      CLOUDY    39  35  85 NE21      29.89R WCI  29
MCCOOK         CLOUDY    39  36  89 NE16      29.87R WCI  30
OGALLALA       CLOUDY    38  34  84 NE20      29.92R WCI  29
$$

NEZ005>010-023>029-035>040-094-282300-
NORTH CENTRAL NEBRASKA

CITY           SKY/WX    TMP DP  RH WIND       PRES   REMARKS
VALENTINE      CLOUDY    49  22  34 NE20      29.95R
AINSWORTH      CLOUDY    47  29  50 NE20      29.94S
BROKEN BOW     CLOUDY    38  34  85 NE15      29.91R WCI  29
O`NEILL        CLOUDY    45  27  49 NE18      29.93F
ORD            CLOUDY    38  33  82 NE15      29.93R WCI  29
THEDFORD       CLOUDY    42  32  68 NE14G20   29.91F
$$

NEZ041-046>049-061>064-073>077-083>087-282300-
SOUTH CENTRAL NEBRASKA

CITY           SKY/WX    TMP DP  RH WIND       PRES   REMARKS
GRAND ISLAND   CLOUDY    37  36  96 NE20G28   29.90R WCI  27
AURORA         CLOUDY    38  37  96 NE20      29.89R WCI  28
HASTINGS       CLOUDY    38  36  92 NE22      29.89R FOG     WCI  27
HEBRON         CLOUDY    41  40  97 NE14      29.86R
HOLDREGE       CLOUDY    37  35  92 NE24      29.88R WCI  25
KEARNEY *      CLOUDY    37  34  87 NE20      29.89R WCI  27
YORK           CLOUDY    39  39 100 NE24      29.89R FOG     WCI  28
$$

NEZ011>018-030>034-042>045-282300-
NORTHEAST NEBRASKA

CITY           SKY/WX    TMP DP  RH WIND       PRES   REMARKS
NORFOLK        LGT RAIN  41  34  76 NE14      29.90R
ALBION         DRIZZLE   41  35  79 NE13G20   29.93R
BLAIR          CLOUDY    40  39  95 NE13      29.87R FOG     WCI  33
FREMONT        LGT RAIN  39  39  98 N10G20    29.90R WCI  32
TEKAMAH        LGT RAIN  40  37  89 N21       29.90R FOG     WCI  30
WAYNE          CLOUDY    44  34  67 NE20      29.91S
$$

NEZ050>053-065>068-078-088>093-282300-
SOUTHEAST NEBRASKA

CITY           SKY/WX    TMP DP  RH WIND       PRES   REMARKS
LINCOLN        LGT RAIN  41  40  96 NE13      29.89R FOG
OMAHA EPPLEY   DRIZZLE   41  37  86 N13       29.89R
BEATRICE       CLOUDY    41  40  97 NE14      29.85R FOG
FALLS CITY     CLOUDY    44  42  93 NE8       29.81R
NEBRASKA CITY  CLOUDY    41  41 100 NE15      29.84R FOG
PLATTSMOUTH    CLOUDY    40  37  89 NE12      29.86R FOG     WCI  33
$$

NEZ044-045-051>053-067-282300-
OMAHA AREA

CITY           SKY/WX    TMP DP  RH WIND       PRES   REMARKS
OMAHA EPPLEY   DRIZZLE   41  37  86 N13       29.89R
BLAIR          CLOUDY    40  39  95 NE13      29.87R FOG     WCI  33
FREMONT        LGT RAIN  39  39  98 N10G20    29.90R WCI  32
MILLARD        DRIZZLE   42  40  93 N3        29.88R
OFFUTT AFB     CLOUDY    41  39  93 NE7       29.87R FOG
PLATTSMOUTH    CLOUDY    40  37  89 NE12      29.86R FOG     WCI  33
WAHOO          RAIN      40  38  93 N17       29.89R WCI  31
$$



USA.gov is the U.S. government's official web portal to all federal, state and local government web resources and services.